Regional Weather Roundup
Issued by NWS

Home | Current Version | Previous Version | Graphics & Text | Print | Product List | Glossary On
Versions: 1 2 3 4 5 6 7 8 9 10 11 12 13 14 15 16 17 18 19 20 21 22 23 24 25 26 27 28 29 30 31 32 33 34 35 36 37 38 39 40 41 42 43 44 45 46 47 48 49 50
000
ASUS45 KCYS 060210
RWRWY

WYOMING REGIONAL WEATHER ROUNDUP
NATIONAL WEATHER SERVICE CHEYENNE WY
800 PM MDT THU MAY 05 2016

NOTE:  "FAIR" INDICATES FEW OR NO CLOUDS BELOW 12,000 FEET
WITH NO SIGNIFICANT WEATHER AND/OR OBSTRUCTIONS TO VISIBILITY.

WYZ001-060300-
YELLOWSTONE NATIONAL PARK

CITY           SKY/WX    TMP DP  RH WIND       PRES   REMARKS
LK YELLOWSTONE   N/A     49  35  58 CALM      30.12R
W YELLOWSTONE  NOT AVBL

$$
WYZ002>013-054>058-071-098>099-060300-
NORTHERN WYOMING

CITY           SKY/WX    TMP DP  RH WIND       PRES   REMARKS
JACKSON        MOCLDY    64  27  24 CALM      30.01S
CODY           FAIR      72  30  21 SE8       29.91S
GREYBULL       FAIR      79  27  14 S7        29.85R
WORLAND        FAIR      69  47  45 SE9       29.87S
SHERIDAN       FAIR      68  52  56 SW5       29.88S
BUFFALO        FAIR      66  45  46 W5        29.96R
GILLETTE       FAIR      56  48  74 SW5       29.90S
HULETT         FAIR      68  41  37 SE6       29.92S
NEWCASTLE      FAIR      73  28  19 SE5       29.91S

$$
WYZ014>020-022>026-101>103-060300-
CENTRAL WYOMING

CITY           SKY/WX    TMP DP  RH WIND       PRES   REMARKS
BIG PINEY      FAIR      66  25  21 S8        30.03R
PINEDALE       FAIR      63  28  27 SE5       30.05S
DUBOIS         CLOUDY    63  30  29 SE7       30.05S
LANDER         FAIR      67  37  33 CALM      29.93S
RIVERTON       FAIR      71  35  26 SE5       29.95S
CASPER         FAIR      67  34  29 S3        29.97R
DOUGLAS        FAIR      68  38  33 SE5       29.96R

$$
WYZ021-027>030-104>119-060300-
SOUTHERN WYOMING

CITY           SKY/WX    TMP DP  RH WIND       PRES   REMARKS
EVANSTON       FAIR      63  27  25 SE7       30.00S
KEMMERER         N/A     63  27  25 S6        30.02S
FORT BRIDGER   CLEAR     63  32  31 SE8       30.03F
ROCK SPRINGS   FAIR      63  28  26 S7        30.01S
DIXON          FAIR      61  44  54 NE8       30.04F
RAWLINS        FAIR      61  32  33 E8        30.05S
SARATOGA       FAIR      63  30  29 N5        30.08R
LARAMIE        FAIR      61  33  35 SE10      30.11R
CHEYENNE       FAIR      66  32  28 S7        30.05S
TORRINGTON     FAIR      70  39  32 SE8       29.92R
PINE BLUFFS    FAIR      61  39  44 SE7       30.01R

$$



USA.gov is the U.S. government's official web portal to all federal, state and local government web resources and services.